Location: Moscow
(55.7500°N, 37.5830°E)
Time: 17:26:37
(UTC+03:00)

Vanguard 1 Rocket - Pass Details

Date: 30 June 2022
Orbit: 651 x 4224 km, 34.3° (Epoch: 16 August)

Event Time Altitude Azimuth Distance (km) Brightness Sun altitude
Rises 23:06:50 0° 239° (WSW) 4,807 11.0 -9.0°
Reaches altitude 10° 23:14:08 10° 201° (SSW) 2,907 9.5 -9.3°
Maximum altitude 23:14:54 10° 195° (SSW) 2,802 9.4 -9.4°
Drops below altitude 10° 23:15:39 10° 188° (S) 2,734 9.3 -9.4°
Enters shadow 23:16:14 10° 182° (S) 2,705 9.2 -9.4°
